Probability
0 0 0 0 0 0 0 0 0 0 0 0 0 0 0 0 0 0 0 0 0 0 0 0 0 0 0 0 0 0 0 0 0 0 0 0 0 0 0 0 0 0 0
0 0 0 0 0 0 0 0 0 0 0 0 0 0 0 0 0 0 0 0 0 0 0 0 0 0 0 0 0 0 0 0 0 0 0 0 0 0 0 0 0 0 0
0 0 0 0 0 0 0 0 0 0 0 0 0 0 0 0 0 0 0 0 0 0 0 0 0 0 0 0 0 0 0 0 0 0 0 0 0 0 0 0 0 0 0
0 0 0 0 0 0 0 0 0 0 0 0 0 0 0 0 0 0 0 0 0 0 0 0 0 0 0 0 0 0 0 0 0 0 0 0 0 0 0 0 0 0 0
1 0 0 0 0 0 0 0 0 0 0 0 0 0 0 0 0 0 0 0 0 0 0 0 0 0 0 0 0 0 0 0 0 0 0 0 0 0 0 0 0 0 0
1 0 0 0 0 0 0 0 0 0 0 0 0 0 0 0 0 0 0 0 0 0 0 0 0 0 0 0 0 0 0 0 0 0 0 0 0 0 0 0 0 0 0
1 0 0 0 0 0 0 0 0 0 0 0 0 0 0 0 0 0 0 0 0 0 0 0 0 0 0 0 0 0 0 0 0 0 0 0 0 0 0 0 0 0 0
0 0 0 0 0 0 0 0 0 0 0 0 0 0 0 0 0 0 0 0 0 0 0 0 0 0 0 0 0 0 0 0 0 0 0 0 0 0 0 0 0 0 0
0 0 0 0 0 0 0 0 0 0 0 0 0 0 0 0 0 0 0 0 0 0 0 0 0 0 0 0 0 0 0 0 0 0 0 0 0 0 0 0 0 0 0
0 0 0 0 0 0 0 0 0 0 0 0 0 0 0 0 0 0 0 0 0 0 0 0 0 0 0 0 0 0 0 0 0 0 0 0 0 0 0 0 0 0 0
0 0 0 1 0 0 0 0 0 0 0 0 0 0 0 0 0 0 0 0 0 0 0 0 0 0 0 0 0 0 0 0 0 0 0 0 0 0 0 0 0 0 0
0 0 0 0 0 0 0 0 0 0 0 0 0 0 0 0 0 0 0 0 0 0 0 0 0 0 0 0 0 0 0 0 0 0 0 0 0 0 0 0 0 0 0
0 0 0 0 0 0 0 0 0 0 0 0 0 0 0 0 0 0 0 0 0 0 0 0 0 0 0 0 0 0 0 0 0 0 0 0 0 0 0 0 0 0 0
0 0 0 0 0 0 0 0 0 0 0 0 0 0 0 0 0 0 0 0 0 0 0 0 0 0 0 0 0 0 0 0 0 0 0 0 0 0 0 0 0 0 0
0 0 0 0 0 0 0 0 0 0 0 0 0 0 0 0 0 0 0 0 0 0 0 0 0 0 0 0 0 0 0 0 0 0 0 0 0 0 0 0 0 0 0
0 0 0 0 0 0 0 0 0 0 0 0 0 0 0 0 0 0 0 0 0 0 0 0 0 0 0 0 0 0 0 0 0 0 0 0 0 0 0 0 0 0 0
0 0 0 0 0 0 0 0 0 0 0 0 0 0 0 0 0 0 0 0 0 0 0 0 0 0 0 0 0 0 0 0 0 0 0 0 0 0 0 0 0 0 0
0 0 0 0 0 0 0 0 0 0 0 0 0 0 0 0 0 0 0 0 0 0 0 0 0 0 0 0 0 0 0 0 0 0 0 0 0 0 0 0 0 0 0
0 0 0 0 0 0 0 0 0 0 0 0 0 0 0 0 0 0 0 0 0 0 0 0 0 0 0 0 0 0 0 0 0 0 0 0 0 0 0 0 0 0 0
0 0 0 0 0 0 0 0 0 0 0 0 0 0 0 0 0 0 0 0 0 0 0 0 0 0 0 0 0 0 0 0 0 0 0 0 0 0 0 0 0 0 0
0 0 0 0 0 0 0 0 0 0 0 0 0 0 0 0 0 0 0 0 0 0 0 0 0 0 0 0 0 0 0 0 0 0 0 0 0 0 0 0 0 0 0
0 0 0 0 0 0 0 0 0 0 0 0 0 0 0 0 0 0 0 0 0 0 0 0 0 0 0 0 0 0 0 0 0 0 0 0 0 0 0 0 0 0 0
0 0 0 0 0 0 0 0 0 0 0 0 0 0 0 0 0 0 0 0 0 0 0 0 0 0 0 0 0 0 0 0 0 0 0 0 0 0 0 0 0 0 0
0 0 0 0 0 0 0 0 0 0 0 0 0 0 0 0 0 0 0 0 0 0 0 0 0 0 0 0 0 0 0 0 0 0 0 0 0 0 0 0 0 0 0
0 0 0 0 0 0 0 0 0 0 0 0 0 0 0 0 0 0 0 0 0 0 0 0 0 0 0 0 0 0 0 0 0 0 0 0 0 0 0 0 0 0 0
0 0 0 0 0 0 0 0 0 0 0 0 0 0 0 0 0 0 0 0 0 0 0 0 0 0 0 0 0 0 0 0 0 0 0 0 0 0 0 0 0 0 0
Wind_Speed
6 5 5 5 4 5 4 4 4 3 4 4 3 3 3 3 3 4 3 3 4 3 3 4 3 3 3 2 2 2 2 3 3 0 0 1 1 2 2 2 2 3 3
6 6 6 5 4 4 4 3 4 4 4 4 4 3 3 3 3 4 3 3 4 3 3 3 2 3 4 3 3 3 2 2 3 2 1 1 1 1 1 1 2 2 2
7 7 6 5 5 5 4 3 3 4 4 3 4 4 3 3 3 3 3 3 3 3 3 3 2 4 3 2 3 3 2 3 2 3 1 1 1 1 2 2 2 2 2
7 7 7 6 6 5 4 4 4 4 5 4 4 4 3 3 3 3 3 3 3 2 2 3 3 3 3 3 3 3 3 3 3 3 2 1 1 1 2 2 2 2 2
8 7 7 6 5 5 5 4 4 4 5 4 4 3 3 3 3 4 4 4 3 2 2 2 2 3 5 4 3 3 4 3 2 2 1 1 1 1 1 0 1 1 2
9 8 6 6 6 5 5 5 4 4 4 4 4 4 3 2 5 6 5 4 4 3 2 1 1 2 4 5 6 5 5 4 3 2 1 1 1 1 0 1 1 1 2
9 8 7 7 6 6 6 5 5 4 4 4 4 4 3 3 6 7 7 5 4 3 3 2 1 2 3 3 4 4 2 2 5 5 4 3 3 3 2 1 1 1 2
9 8 7 7 7 6 6 6 5 4 4 4 4 4 3 3 5 7 7 4 3 2 2 3 3 2 3 4 3 2 1 1 1 3 4 4 3 3 3 3 2 1 1
9 9 8 8 8 7 7 6 5 4 4 4 3 4 3 2 4 6 6 3 2 1 1 2 3 3 4 5 4 2 0 1 1 2 3 3 3 4 3 2 1 1 1
10 9 8 8 8 8 7 6 4 4 4 4 3 3 3 2 3 5 6 3 2 1 0 0 2 3 4 5 4 4 2 2 0 1 1 2 1 1 2 3 3 2 1
8 7 7 7 8 7 6 4 5 4 4 4 3 2 2 2 2 5 6 3 3 2 1 1 1 2 4 5 5 4 4 2 1 0 1 1 2 1 1 1 2 3 3
7 7 7 7 7 6 6 5 5 5 5 4 3 1 1 1 1 3 5 5 4 3 2 2 2 2 2 3 3 3 3 2 1 0 0 1 1 2 2 2 2 3 3
8 7 6 7 5 6 7 6 5 4 4 3 3 2 1 1 1 2 3 4 5 3 2 3 3 2 1 1 2 2 2 1 1 1 2 2 2 2 2 1 1 1 2
9 7 6 6 5 5 4 5 5 5 4 4 3 3 2 1 1 1 1 2 3 2 1 1 1 1 0 0 1 0 1 2 2 2 3 2 1 1 1 1 1 1 1
9 7 6 5 5 5 4 3 4 4 6 6 5 4 4 3 4 5 4 3 3 3 2 2 1 1 1 1 1 1 1 0 1 1 1 2 2 1 2 1 1 1 1
8 7 6 5 5 5 5 3 4 3 4 6 6 5 3 4 4 4 5 4 4 6 4 1 1 1 1 1 1 1 1 1 2 1 1 2 2 2 2 1 1 1 2
8 7 5 5 5 5 5 5 3 3 5 3 3 4 4 4 4 4 4 4 4 7 3 1 1 1 1 1 1 1 2 2 1 1 1 2 2 2 1 1 1 1 2
7 7 6 5 5 5 5 4 4 5 3 1 2 2 2 3 4 4 5 6 3 2 1 1 1 1 1 1 1 1 1 1 1 1 1 1 1 1 1 2 2 2 2
6 5 5 5 4 5 4 4 4 4 3 2 1 2 2 4 5 5 5 3 2 1 1 1 1 1 1 1 1 1 1 1 1 1 1 2 1 1 2 2 2 3 3
5 8 7 5 5 5 4 4 4 4 3 2 2 1 2 3 2 2 1 1 1 1 1 1 1 1 1 1 1 1 1 1 1 1 2 2 2 2 2 3 2 2 3
5 6 8 6 5 5 4 4 4 4 3 2 1 2 5 3 2 2 1 1 1 1 1 1 1 1 1 1 1 1 1 1 1 2 2 2 2 2 2 2 2 2 3
5 5 5 5 4 4 4 4 4 4 4 3 2 2 4 3 2 2 1 1 1 1 1 1 0 1 1 1 1 1 1 2 2 2 2 2 2 2 2 2 2 2 3
6 6 5 4 4 5 5 4 4 4 3 3 3 2 2 2 2 1 1 1 0 0 0 0 0 1 1 1 1 1 1 2 2 2 2 2 2 2 2 3 3 3 4
6 6 6 5 4 4 4 4 3 3 3 3 3 2 2 2 2 2 1 1 1 1 1 1 0 0 1 1 1 1 1 2 2 2 2 2 2 2 2 3 3 4 4
5 5 5 5 5 4 4 4 3 3 3 3 3 3 2 2 1 1 1 1 1 1 1 1 1 1 1 0 1 1 1 2 2 2 2 2 3 3 3 3 4 4 4
5 5 5 4 4 4 4 4 3 3 3 3 2 2 2 2 1 1 1 1 0 0 1 1 1 1 1 1 1 2 2 3 3 4 2 2 2 3 3 3 4 4 5
Wind_Direction
165 163 155 162 160 149 150 157 159 154 149 149 150 134 118 107 103 99 97 94 91 76 73 84 78 79 77 68 79 88 92 113 126 252 310 350 37 49 39 36 41 37 32
163 155 155 158 151 148 153 156 155 155 155 156 150 138 136 129 119 117 114 106 108 104 96 93 84 87 77 69 79 82 87 101 126 128 1 9 30 45 58 56 43 50 34
156 154 154 156 157 162 163 155 152 149 144 144 141 143 146 143 132 129 123 118 121 125 125 119 113 103 90 82 84 87 83 80 91 115 85 12 16 33 51 37 33 24 16
157 160 164 169 172 171 165 154 150 143 142 145 144 144 144 141 139 135 123 116 111 109 118 126 132 134 135 126 107 106 104 87 83 93 78 32 19 11 60 50 19 7 357
159 165 175 173 169 159 154 152 146 138 142 142 131 125 127 134 146 141 134 131 126 112 91 105 131 144 153 149 136 134 122 108 99 95 84 45 15 24 17 360 65 351 347
164 172 172 164 164 161 159 151 143 139 134 131 134 136 137 141 142 143 140 132 133 135 132 112 108 116 123 121 128 137 144 142 145 139 142 159 236 231 202 123 115 50 325
169 170 168 165 165 168 159 149 150 151 139 134 138 139 144 159 150 142 137 131 134 147 155 153 142 132 125 114 100 95 95 146 167 162 167 201 208 210 175 159 179 182 225
169 170 171 166 169 166 156 158 160 153 150 151 153 154 151 173 159 147 139 125 128 151 175 176 163 162 165 152 129 98 56 358 205 173 184 209 212 202 184 183 185 176 294
174 177 176 171 168 164 164 168 167 153 155 160 161 162 161 187 176 159 141 126 131 163 204 178 166 173 187 163 140 140 112 318 350 164 190 215 222 210 175 124 106 94 311
183 180 174 171 168 171 176 171 160 154 162 159 158 168 169 184 188 172 154 139 147 176 221 243 184 181 183 167 158 162 190 245 255 15 3 343 324 290 215 178 170 164 197
177 168 165 169 171 171 167 161 152 149 147 150 155 168 179 194 192 179 171 156 168 173 185 228 241 197 191 184 172 178 200 192 162 178 309 321 327 316 295 225 190 174 183
156 157 163 167 170 162 154 157 151 147 147 154 150 159 225 231 191 186 182 181 171 167 197 215 224 211 199 193 190 201 200 156 121 97 325 299 292 284 275 259 230 216 214
151 158 161 162 165 158 157 157 149 151 155 164 161 174 210 247 258 218 198 192 185 179 200 200 204 207 202 213 224 218 192 161 163 200 244 255 250 256 275 297 300 274 276
155 161 160 156 151 149 152 156 156 162 166 168 171 182 189 193 240 228 205 196 191 193 198 187 128 118 135 294 320 294 202 194 197 222 242 254 272 283 274 252 262 299 317
156 159 155 150 149 143 140 150 163 175 178 175 184 181 175 199 224 196 174 181 183 179 133 80 53 38 3 332 324 308 295 274 241 246 247 269 280 278 275 265 229 205 229
151 153 154 151 150 145 136 106 65 97 142 166 171 170 184 193 182 179 183 180 167 143 123 124 170 202 230 245 261 291 293 267 255 248 249 250 259 264 276 289 272 237 257
153 154 151 152 149 148 149 146 132 60 64 92 137 160 167 162 159 160 160 151 139 134 123 167 198 216 236 246 246 245 263 266 257 245 250 259 262 266 271 280 282 279 275
145 148 147 151 151 150 152 151 150 148 136 61 31 89 139 141 133 132 127 112 98 117 168 200 221 233 239 244 248 252 270 293 287 268 264 268 263 259 269 275 268 265 269
136 140 140 137 138 139 139 137 137 140 136 129 89 47 83 98 90 92 109 112 145 182 213 230 235 230 236 240 246 250 252 264 279 277 276 272 268 259 268 273 272 277 270
131 134 132 132 131 131 133 135 136 136 134 134 144 159 108 89 85 86 100 114 137 184 210 228 246 244 246 250 254 256 271 281 290 279 280 282 277 265 266 270 272 276 272
127 131 126 122 128 134 136 141 144 141 143 147 164 147 134 129 142 149 153 168 192 214 231 236 259 279 275 271 255 251 251 265 266 265 271 276 278 277 275 268 267 268 275
125 123 123 124 123 125 130 132 132 135 142 141 130 113 124 118 126 130 137 160 204 219 211 182 216 266 256 245 237 238 252 263 266 265 267 270 272 272 275 275 275 274 274
122 122 119 118 119 122 120 120 127 132 135 136 130 119 119 126 129 133 140 155 143 94 52 107 96 350 339 320 280 225 232 253 259 256 256 265 267 269 268 269 273 280 277
120 123 124 122 119 119 120 120 124 127 128 126 124 125 128 133 131 133 141 126 99 74 64 68 85 327 337 331 312 288 273 275 278 267 253 258 265 268 268 272 274 273 275
115 118 120 122 122 123 121 120 121 122 121 123 123 122 121 121 121 118 115 105 97 78 38 18 358 352 336 291 291 311 329 336 331 318 286 265 266 266 267 270 275 279 280
111 114 115 117 120 122 124 124 122 121 121 122 123 125 127 127 127 116 98 93 78 17 351 340 336 348 348 334 321 325 332 328 324 321 306 278 277 279 284 283 285 284 282